❰ Current Conditions

NWS Regional Weather Roundup - New England Area

REGIONAL WEATHER ROUNDUP
NATIONAL WEATHER SERVICE BOSTON/NORTON MA
600 AM EDT WED JUL 15 2020

NOTE:  "FAIR" INDICATES FEW OR NO CLOUDS BELOW 12,000 FEET WITH NO 
SIGNIFICANT WEATHER AND/OR OBSTRUCTIONS TO VISIBILITY.

MAZALL-151100-
EASTERN MASSACHUSETTS
  
CITY           SKY/WX    TMP DP  RH WIND       PRES   REMARKS
BOSTON         CLOUDY    62  61  96 NE10      30.17R                  
BEVERLY        CLOUDY    63  62  97 NE6       30.16R FOG              
LAWRENCE       CLOUDY    63  62  97 N5        30.19R                  
BEDFORD        LGT RAIN  65  62  90 NE8       30.15R                  
BLUE HILL        N/A     60  60 100 NE10      30.15R                  
NORWOOD        CLOUDY    65  61  87 NE8       30.15R FOG              
MARSHFIELD     CLOUDY    66  61  82 NE8G16    30.15R                  
PLYMOUTH       CLOUDY    63  60  90 NE10      30.15R                  
TAUNTON        CLOUDY    65  61  87 VRB5      30.14R                  
NEW BEDFORD    CLOUDY    65  63  93 N6        30.13R                  
$$

MAZALL-151100-
CAPE COD AND THE ISLANDS
  
CITY           SKY/WX    TMP DP  RH WIND       PRES   REMARKS
FALMOUTH       CLOUDY    63  59  88 N12       30.12S                  
HYANNIS        CLOUDY    67  60  78 N17G24    30.10R                  
CHATHAM        MOCLDY    64  59  83 N8G18     30.11R                  
PROVINCETOWN   CLOUDY    63  60  90 NE15G24   30.15R                  
NANTUCKET      PTCLDY    65  60  84 N15       30.10R                  
MARTHAS VNYRD  CLOUDY    65  61  87 N10G18    30.12R                  
$$
 
MAZALL-151100-
CENTRAL AND WESTERN MASSACHUSETTS
  
CITY           SKY/WX    TMP DP  RH WIND       PRES   REMARKS
WORCESTER      CLOUDY    64  60  87 N6        30.17R                  
FITCHBURG      CLOUDY    65  62  90 N6        30.17R                  
ORANGE         CLOUDY    63  62  97 CALM      30.18R                  
SPRINGFIELD    PTCLDY    64  63  96 NE5       30.15R                  
WESTFIELD      CLOUDY    66  63  90 N5        30.16R                  
NORTH ADAMS    PTCLDY    59  57  93 CALM      30.17R FOG              
PITTSFIELD     CLOUDY    63  61  93 CALM      30.17R                  
$$
 
RIZALL-151100-
RHODE ISLAND
  
CITY           SKY/WX    TMP DP  RH WIND       PRES   REMARKS
PROVIDENCE     PTCLDY    65  62  90 N7        30.15R                  
NEWPORT        PTCLDY    66  62  87 N5        30.14R                  
BLOCK ISLAND   CLEAR     65  62  90 N8        30.14R                  
SMITHFIELD     CLOUDY    63  63 100 N6        30.16R                  
WESTERLY         N/A     68  60  75 CALM      30.14R                  
$$
 
CTZALL-151100-
CONNECTICUT
  
CITY           SKY/WX    TMP DP  RH WIND       PRES   REMARKS
BRADLEY INTL   MOCLDY    66  63  90 N5        30.15R                  
HARTFORD       CLOUDY    69  63  81 N6        30.15R                  
BRIDGEPORT     CLOUDY    69  63  81 E8        30.15R                  
DANBURY        CLOUDY    65  63  93 NE5       30.17R                  
GROTON         PTCLDY    65  62  90 N3        30.14R                  
NEW HAVEN      MOCLDY    67  65  93 N5        30.15R                  
CHESTER        NOT AVBL                                               
MERIDEN        CLOUDY    66  62  87 CALM      30.15R                  
WILLIMANTIC    PTCLDY    63  63 100 CALM      30.16R                  
OXFORD         CLOUDY    64  63  96 NE3       30.18                   
$$

MEZ002-015-021-024-NHZ003-005-008-011-012-014-VTZ005-008-151100-
NORTHERN NEW ENGLAND
  
CITY           SKY/WX    TMP DP  RH WIND       PRES   REMARKS
PORTLAND ME    CLOUDY    64  57  78 N9        30.18R                  
BANGOR ME      MOCLDY    59  53  80 N10       30.20R                  
CONCORD NH     CLOUDY    64  62  93 NE3       30.18R                  
MANCHESTER NH  CLOUDY    65  62  90 NE8       30.16R                  
NASHUA NH      LGT RAIN  64  64 100 VRB3      30.18R FOG              
PORTSMOUTH NH  CLOUDY    63  61  93 N3        30.16R                  
JAFFREY NH     CLOUDY    63  60  90 CALM      30.20R                  
KEENE NH       CLOUDY    63  62  97 CALM      30.18R                  
BURLINGTON VT  PTCLDY    64  60  87 N8        30.17R                  
MT. WASHINGTON FOG       45  45 100 NW14        N/A  VSB 1/16         
$$

NYZ052-076-151100-
EASTERN NEW YORK
  
CITY           SKY/WX    TMP DP  RH WIND       PRES   REMARKS
ALBANY         PTCLDY    66  62  87 N3        30.15R                  
NEW YORK CITY  MOCLDY    72  66  81 NE5       30.13R                  
$$
 
ANZALL-151100-
MARINE OBSERVATIONS
  
STATION/POSITION TIME  TEMP    WIND        PRES    VSBY  WAVE
                       AIR SEA DIR/SP/G                  HT/PER
                 (UTC) (F)     (DEG/KT/KT) (MB)    (MI)  (FT/S)
BOSTON BUOY      0850   65 68   50/ 17/ 21 1018.9          5/ 8
BUZZARDS BAY     0900          360/ 12/ 13 1020.4R
NANTUCKET SOUND  0940      73  350/ 17/ 21 1018.9R
MASS BAY-STELLWA 0904   63      70/ 16/ 19 1018.2R  1 7/8  7/ 8
ISLE OF SHOALS   0900   62      40/ 12/ 14 1020.4R
S OF BLOCK IS    0926      70                N/A           3/ 8
$$

......................KEY.........................
  SKY/WX - SKY CONDITION/PRESENT WEATHER
  TMP    - TEMPERATURE IN FAHRENHEIT
  DWPT   - DEWPOINT IN FAHRENHEIT
  RH     - RELATIVE HUMIDITY IN PERCENT
  WIND   - DIRECTION AND SPEED IN MPH
  PRES   - MEAN SEA LEVEL PRESSURE IN INCHES OF HG
  WCI    - WIND CHILL INDEX
  VSB    - VISIBILITY IN MILES
  HX     - HEAT INDEX
  TC     - TEMPERATURE IN CELSIUS
  VRB    - VARIABLE WIND DIRECTION